Find Starlink 2736

NORAD ID: 48640 Int'l Des: 2021-044 Owner: SPXS Country: US Constellation: starlink operational
LEOCIRCULAR

現在のビュー

3D地球を読み込み中...

About Starlink 2736

Starlink 2736 (NORAD 48640) is a starlink constellation satellite (v1.0) launched May 26, 2021 by SPXS of US. It operates in LEO, CIRCULAR orbit with a mass of 260.00 kg.

Starlink 2736について

説明を読み込み中...

次回通過

Passes for default location (London). Set your location on the main map for personalized predictions.

高度履歴

Loading altitude history...

軌道要素

1 48640U 21044C 26170.80595134 .00001852 00000-0 71419-4 0 9996
2 48640 53.1608 358.7545 0001104 101.6040 258.5085 15.31707901279467
Epoch: Jun 19, 2026 • Age: 27 hours

現在のステータス

高度 476.5 km
速度 7.63 km/s
衛星直下点 53.25°N, 164.73°W
打ち上げ日 May 26, 2021
運用期間 5 years
タイプ internet

技術仕様

分類 Payload
質量 260.00 kg
乾燥質量 248.00 kg
総質量 260.00 kg
長さ 0.20 m
直径 2.80 m
スパン 9.00 m
形状 Box + pan
製造者 SPXS
バスタイプ Starlink
フェーズステータス In Orbit
所有者/国 SPXS/US

Most Searched